Adelanto, California, United States (92301)
Lat: 34.58N, Lon: 117.41W
Wx Zone: CAZ060
Local Info
Past Weather Observations for Monday, February 23, 2015

NOTE: This archive is for the closest National Weather Service station to Adelanto. Information may differ from the station used for current weather conditions.

Click here for Long-term Archive

Time Weather Temperature Dewpoint Humidity Pressure Winds Precip Visibility
23:55
Fair
37°F / 3°C 34°F / 1°C 87% 30.18 in
(1022 mb)
Calm - 10SM
23:35
Clear
37°F / 3°C 34°F / 1°C 87% 30.18 in
(1022 mb)
Calm - 10SM
23:15
Fair
37°F / 3°C 34°F / 1°C 87% 30.15 in
(1021 mb)
Calm - 10SM
22:55
Fair
37°F / 3°C 36°F / 2°C 93% 30.15 in
(1021 mb)
Calm - 10SM
22:35
Fair
37°F / 3°C 36°F / 2°C 93% 30.15 in
(1021 mb)
Calm - 10SM
22:15
Fair
37°F / 3°C 36°F / 2°C 93% 30.15 in
(1021 mb)
Calm - 10SM
21:55
Fair
39°F / 4°C 36°F / 2°C 87% 30.15 in
(1021 mb)
Calm - 10SM
21:35
Mostly Cloudy
39°F / 4°C 36°F / 2°C 87% 30.15 in
(1021 mb)
Calm - 10SM
21:15
Mostly Cloudy
39°F / 4°C 36°F / 2°C 87% 30.15 in
(1021 mb)
Calm - 10SM
20:55
Clear
39°F / 4°C 37°F / 3°C 93% 30.15 in
(1021 mb)
Calm - 10SM
20:35
Clear
43°F / 6°C 37°F / 3°C 81% 30.12 in
(1020 mb)
Calm - 10SM
20:15
Clear
43°F / 6°C 36°F / 2°C 76% 30.12 in
(1020 mb)
Calm - 10SM
19:55
Clear
45°F / 7°C 36°F / 2°C 71% 30.12 in
(1020 mb)
Calm - 10SM
19:35
Clear
46°F / 8°C 36°F / 2°C 66% 30.12 in
(1020 mb)
Calm - 10SM
19:15
Clear
46°F / 8°C 36°F / 2°C 66% 30.09 in
(1019 mb)
Calm - 10SM
18:55
Partly Cloudy
46°F / 8°C 36°F / 2°C 66% 30.09 in
(1019 mb)
Calm - 10SM
18:35
Mostly Cloudy
46°F / 8°C 36°F / 2°C 66% 30.09 in
(1019 mb)
Calm - 10SM
18:15
Mostly Cloudy
46°F / 8°C 36°F / 2°C 66% 30.09 in
(1019 mb)
Calm - 10SM
17:55
Partly Cloudy
46°F / 8°C 36°F / 2°C 66% 30.09 in
(1019 mb)
Calm - 10SM
17:35
Partly Cloudy
46°F / 8°C 36°F / 2°C 66% 30.09 in
(1019 mb)
Calm - 10SM
17:15
Overcast
48°F / 9°C 36°F / 2°C 62% 30.09 in
(1019 mb)
Calm - 10SM
16:55
Overcast
48°F / 9°C 36°F / 2°C 62% 30.09 in
(1019 mb)
Calm - 10SM
16:35
Overcast
48°F / 9°C 34°F / 1°C 58% 30.06 in
(1018 mb)
E 5.8 mph
(E 9 kph)
- 10SM
16:15
Overcast
Drizzle
48°F / 9°C 34°F / 1°C 58% 30.06 in
(1018 mb)
Calm - 10SM
15:55
Overcast
Light Rain
48°F / 9°C 36°F / 2°C 62% 30.06 in
(1018 mb)
Calm - 10SM
15:35
Overcast
Light Rain
48°F / 9°C 34°F / 1°C 58% 30.06 in
(1018 mb)
Calm - 10SM
15:15
Overcast
48°F / 9°C 34°F / 1°C 58% 30.06 in
(1018 mb)
Calm - 10SM
14:55
Overcast
Drizzle
48°F / 9°C 34°F / 1°C 58% 30.04 in
(1017 mb)
NNE 9.2 mph
(NNE 15 kph)
- 10SM
14:35
Overcast
48°F / 9°C 34°F / 1°C 58% 30.04 in
(1017 mb)
NE 10.4 mph
(NE 17 kph)
- 10SM
14:15
Overcast
48°F / 9°C 34°F / 1°C 58% 30.04 in
(1017 mb)
Calm - 10SM
13:55
Overcast
48°F / 9°C 34°F / 1°C 58% 30.04 in
(1017 mb)
Calm - 10SM
13:35
Overcast
48°F / 9°C 36°F / 2°C 62% 30.04 in
(1017 mb)
N 10.4 mph
(N 17 kph)
- 10SM
13:15
Overcast
48°F / 9°C 36°F / 2°C 62% 30.04 in
(1017 mb)
NE 11.5 mph
(NE 19 kph)
- 10SM
12:55
Overcast
48°F / 9°C 36°F / 2°C 62% 30.04 in
(1017 mb)
NE 8.1 mph
(NE 13 kph)
- 10SM
12:35
Overcast
48°F / 9°C 36°F / 2°C 62% 30.04 in
(1017 mb)
NNE 4.6 mph
(NNE 7 kph)
- 10SM
12:15
Overcast
46°F / 8°C 36°F / 2°C 66% 30.04 in
(1017 mb)
NNE 5.8 mph
(NNE 9 kph)
- 10SM
11:55
Overcast
46°F / 8°C 37°F / 3°C 71% 30.04 in
(1017 mb)
NE 8.1 mph
(NE 13 kph)
- 10SM
11:35
Overcast
46°F / 8°C 36°F / 2°C 66% 30.06 in
(1018 mb)
Calm - 10SM
11:15
Overcast
45°F / 7°C 37°F / 3°C 76% 30.06 in
(1018 mb)
Calm - 10SM
10:55
Overcast
45°F / 7°C 37°F / 3°C 76% 30.06 in
(1018 mb)
Calm - 10SM
10:35
Overcast
45°F / 7°C 37°F / 3°C 76% 30.06 in
(1018 mb)
Calm - 10SM
10:15
Overcast
Fog And Mist
43°F / 6°C 37°F / 3°C 81% 30.04 in
(1017 mb)
E 4.6 mph
(E 7 kph)
- 4SM
09:55
Overcast
43°F / 6°C 37°F / 3°C 81% 30.04 in
(1017 mb)
Calm - 10SM
09:35
Overcast
Drizzle
43°F / 6°C 39°F / 4°C 87% 30.04 in
(1017 mb)
N 3.5 mph
(N 6 kph)
- 10SM
09:15
Overcast
43°F / 6°C 39°F / 4°C 87% 30.04 in
(1017 mb)
N 5.8 mph
(N 9 kph)
- 7SM
08:55
Overcast
43°F / 6°C 39°F / 4°C 87% 30.01 in
(1016 mb)
NE 3.5 mph
(NE 6 kph)
- 10SM
08:35
Overcast
41°F / 5°C 39°F / 4°C 93% 30.01 in
(1016 mb)
Calm - 10SM
08:15
Drizzle
39°F / 4°C 37°F / 3°C 93% 30.01 in
(1016 mb)
Calm - 2SM
07:55
Drizzle
39°F / 4°C 37°F / 3°C 93% 29.98 in
(1015 mb)
Calm - 1 1/4SM
07:35
Drizzle
39°F / 4°C 37°F / 3°C 93% 29.98 in
(1015 mb)
Calm - 2 1/2SM
07:15
Fair
39°F / 4°C 37°F / 3°C 93% 29.98 in
(1015 mb)
Calm - 10SM
06:55
Fair
39°F / 4°C 37°F / 3°C 93% 29.95 in
(1014 mb)
Calm - 10SM
06:35
Fair
39°F / 4°C 37°F / 3°C 93% 29.95 in
(1014 mb)
Calm - 10SM
06:15
Drizzle
39°F / 4°C 37°F / 3°C 93% 29.95 in
(1014 mb)
Calm - 10SM
05:55
Drizzle
39°F / 4°C 37°F / 3°C 93% 29.95 in
(1014 mb)
Calm - 10SM
05:35
Light Rain
39°F / 4°C 37°F / 3°C 93% 29.92 in
(1013 mb)
Calm - 10SM
05:15
Light Rain
39°F / 4°C 37°F / 3°C 93% 29.92 in
(1013 mb)
Calm - 10SM
04:55
Drizzle
39°F / 4°C 37°F / 3°C 93% 29.92 in
(1013 mb)
Calm - 10SM
04:35
Light Rain
39°F / 4°C 37°F / 3°C 93% 29.92 in
(1013 mb)
Calm - 10SM
04:15
Fair
39°F / 4°C 37°F / 3°C 93% 29.89 in
(1012 mb)
Calm - 10SM
03:55
Fair
39°F / 4°C 37°F / 3°C 93% 29.89 in
(1012 mb)
Calm - 10SM
03:35
Fair
39°F / 4°C 37°F / 3°C 93% 29.89 in
(1012 mb)
Calm - 10SM
03:15
Fair
39°F / 4°C 37°F / 3°C 93% 29.89 in
(1012 mb)
Calm - 10SM
02:55
Fair
39°F / 4°C 37°F / 3°C 93% 29.89 in
(1012 mb)
Calm - 10SM
02:35
Fair
39°F / 4°C 37°F / 3°C 93% 29.89 in
(1012 mb)
Calm - 7SM
02:15
Fair
39°F / 4°C 37°F / 3°C 93% 29.89 in
(1012 mb)
Calm - 10SM
01:55
Drizzle
39°F / 4°C 37°F / 3°C 93% 29.89 in
(1012 mb)
Calm - 10SM
01:35
Light Rain
39°F / 4°C 37°F / 3°C 93% 29.89 in
(1012 mb)
Calm - 10SM
01:15
Rain
39°F / 4°C 37°F / 3°C 93% 29.89 in
(1012 mb)
Calm - 10SM
00:55
Light Rain
41°F / 5°C 39°F / 4°C 93% 29.89 in
(1012 mb)
Calm - 10SM
00:35
Rain
41°F / 5°C 39°F / 4°C 93% 29.86 in
(1011 mb)
Calm - 10SM
00:15
Drizzle
39°F / 4°C 37°F / 3°C 93% 29.86 in
(1011 mb)
NNW 6.9 mph
(NNW 11 kph)
- 10SM
Time Weather Temperature Dewpoint Humidity Pressure Winds Precip Visibility


Weather for websites

WeatherForYou.com, LLC is not responsible for any damages or problems caused by this service. Current weather conditions are obtained from the closest station including government and personal stations which may have varying degrees of accuracy. Weather forecasts are derived from the NOAA NDFD. Like all things, this site belongs to Jesus Christ... He just trusts me to maintain it. If you have any questions or comments email webmaster@weatherforyou.com

Copyright © 2015, WeatherForYou.com LLC. All rights reserved.